Regional Weather Roundup
Issued by NWS Goodland, KS

Home | Current Version | Previous Version | Graphics & Text | Print | Product List | Glossary On
Versions: 1 2 3 4 5 6 7 8 9 10 11 12 13 14 15 16 17 18 19 20 21 22 23 24 25 26 27 28 29 30 31 32 33 34 35 36 37 38 39 40 41 42 43 44 45 46 47 48 49 50
000
ASUS43 KGLD 191459
RWRGLD

GOODLAND FORECAST AREA HOURLY WEATHER ROUNDUP
NATIONAL WEATHER SERVICE GOODLAND KS
800 AM MST SUN FEB 19 2017

...OFFICIAL OBSERVATIONS...

CITY           SKY/WX    TMP DP  RH WIND       PRES   REMARKS
GOODLAND KS    CLOUDY    48  37  65 S9        29.72R
HILL CITY KS   CLOUDY    50  48  93 S5        29.82R FOG
IMPERIAL NEB   CLOUDY    46  35  65 SE6       29.71R
MCCOOK NEB     CLOUDY    51  46  83 S8        29.74S
AKRON CO       CLOUDY    44  28  53 W10       29.69R
BURLINGTON CO  CLOUDY    53  35  50 S21       29.72R
LIMON CO       CLOUDY    41  30  65 SE9       29.75R
$$

...UNOFFICIAL OBSERVATIONS...

CITY           SKY/WX    TMP DP  RH WIND       PRES   REMARKS
LENORA KS        N/A     47  32  56 S10         N/A
NORTON KS      SUNNY     48  43  81 S14G20    29.79R
SHARON SPRINGS   N/A     47  41  79 S20G26      N/A
TRENTON NEB      N/A     48  32  54 SW5         N/A
KIT CARSON CO    N/A     46  35  65 MISG        N/A
YUMA CO        FAIR      43  30  61 SW3       29.68S
$$



USA.gov is the U.S. government's official web portal to all federal, state and local government web resources and services.